Stations météo

réclame
Mon MeteoGroup
Landsort, Suède (2567): Température de l'air & dewpoint: 13.07.2018 21:00:00 - 19.07.2018 21:00:00 (CEST)Landsort, Suède (2567): Vitesse du vent & gusts: 13.07.2018 21:00:00 - 19.07.2018 21:00:00 (CEST)Landsort, Suède (2567): Direction du vent: 13.07.2018 21:00:00 - 19.07.2018 21:00:00 (CEST)Landsort, Suède (2567): reduced air pressure: 13.07.2018 21:00:00 - 19.07.2018 21:00:00 (CEST)Landsort, Suède (2567): visibility: 13.07.2018 21:00:00 - 19.07.2018 21:00:00 (CEST)Landsort, Suède (2567): Quantités de précipitations: 13.07.2018 21:00:00 - 19.07.2018 21:00:00 (CEST)
Date & Time tt [°C] td [°C] ff [km/h] ff [knt] fx [km/h] fx [knt] dd ppp [hPa] vv [km] rr [mm]
19.07.2018 21:00:00 - - - - - - - - - -
19.07.2018 20:00:00 22,5 17,8 5 3 16 8 E 1012,7 39 0,0
19.07.2018 19:00:00 22,7 18,1 11 6 21 11 E 1012,4 39 0,0
19.07.2018 18:00:00 22,8 18,2 11 6 21 11 E 1012,6 37 0,0
19.07.2018 17:00:00 22,9 18,9 18 10 25 14 E 1012,9 32 0,0
19.07.2018 16:00:00 22,9 18,5 18 10 29 16 E 1013,2 32 0,0
19.07.2018 15:00:00 23,4 18,6 24 13 32 17 E 1013,2 29 0,0
19.07.2018 14:00:00 23,9 19,1 24 13 32 17 E 1013,1 29 0,0
19.07.2018 13:00:00 - - - - - - - - - -
19.07.2018 12:00:00 22,6 18,5 24 13 31 17 ENE 1013,3 30 0,0
19.07.2018 11:00:00 23,0 18,8 22 12 27 15 ENE 1013,0 28 0,0
19.07.2018 10:00:00 22,4 19,1 21 11 27 15 ENE 1012,9 29 0,0
19.07.2018 09:00:00 23,2 18,3 23 12 30 16 NE 1012,8 33 0,0
19.07.2018 08:00:00 22,4 18,1 23 12 30 16 NE 1012,9 29 0,0
19.07.2018 07:00:00 22,0 17,9 24 13 28 15 NE 1012,7 35 0,0
19.07.2018 06:00:00 20,9 16,4 15 8 22 12 NNE 1012,5 37 0,0
19.07.2018 05:00:00 21,1 16,0 15 8 21 12 NNE 1012,4 39 0,0
19.07.2018 04:00:00 20,9 16,1 15 8 21 12 NNE 1012,6 41 0,0
19.07.2018 03:00:00 21,2 16,6 15 8 25 14 NNE 1012,6 45 0,0
19.07.2018 02:00:00 21,5 16,7 20 11 25 14 NE 1012,8 45 0,0
19.07.2018 01:00:00 21,8 17,3 21 12 26 14 NE 1012,9 46 0,0
19.07.2018 00:00:00 21,7 17,6 20 11 26 14 NE 1013,1 43 0,0
18.07.2018 23:00:00 21,8 18,0 19 11 25 14 NE 1013,1 39 0,0
18.07.2018 22:00:00 21,8 18,2 18 10 26 14 NE 1013,1 37 0,0
18.07.2018 21:00:00 22,0 18,5 22 12 26 14 ENE 1012,9 40 0,0
18.07.2018 20:00:00 22,2 18,3 18 10 26 14 ENE 1012,9 35 0,0
18.07.2018 19:00:00 22,8 18,3 22 12 25 14 ENE 1012,8 30 0,0
18.07.2018 18:00:00 22,3 18,9 16 9 29 16 ENE 1013,0 26 0,0
18.07.2018 17:00:00 22,6 19,3 16 9 34 19 ENE 1013,2 23 0,0
18.07.2018 16:00:00 22,9 19,4 26 14 35 19 ENE 1013,1 27 0,0
18.07.2018 15:00:00 23,1 19,4 29 16 34 18 E 1013,0 26 0,0
18.07.2018 14:00:00 22,6 19,0 17 9 29 16 ENE 1012,9 23 0,0
18.07.2018 13:00:00 23,3 18,9 20 11 34 18 E 1013,2 23 0,0
18.07.2018 12:00:00 22,6 19,4 26 14 34 19 ENE 1013,2 20 0,0
18.07.2018 11:00:00 22,5 19,1 29 16 34 19 E 1013,3 23 0,0
18.07.2018 10:00:00 22,0 18,8 26 14 34 19 ENE 1013,2 24 0,0
18.07.2018 09:00:00 21,9 18,8 27 15 34 19 ENE 1013,2 25 0,0
18.07.2018 08:00:00 22,0 18,4 28 15 34 18 ENE 1013,0 26 0,0
18.07.2018 07:00:00 21,8 18,7 23 12 29 16 NE 1012,9 28 0,0
18.07.2018 06:00:00 21,9 18,5 22 12 31 17 NE 1012,9 27 0,0
18.07.2018 05:00:00 21,6 18,7 26 14 31 17 ENE 1012,4 27 0,0
18.07.2018 04:00:00 21,8 18,8 23 13 40 21 NE 1012,5 22 0,0
18.07.2018 03:00:00 22,2 18,5 28 15 40 21 NE 1012,6 28 0,0
18.07.2018 02:00:00 23,0 17,4 32 18 39 21 NE 1012,8 43 0,0
18.07.2018 01:00:00 22,5 18,2 31 17 39 21 ENE 1013,1 36 0,0
18.07.2018 00:00:00 22,7 17,4 29 16 34 18 NE 1013,4 42 0,0
17.07.2018 23:00:00 22,6 17,7 23 12 29 16 NE 1013,4 40 0,0
17.07.2018 22:00:00 23,1 17,3 22 12 29 16 NE 1013,7 49 0,0
17.07.2018 21:00:00 23,5 16,7 25 14 30 16 NE 1013,4 50 0,0
17.07.2018 20:00:00 23,4 17,8 22 12 34 18 NE 1013,3 39 0,0
17.07.2018 19:00:00 22,9 18,3 29 15 34 19 ENE 1013,3 32 0,0
17.07.2018 18:00:00 23,2 18,6 30 16 34 19 ENE 1013,6 37 0,0
17.07.2018 17:00:00 24,8 18,1 26 14 31 17 E 1013,9 40 0,0
17.07.2018 16:00:00 24,2 18,1 20 11 27 15 ENE 1014,0 32 0,0
17.07.2018 15:00:00 24,2 18,7 23 12 26 14 NE 1014,4 35 0,0
17.07.2018 14:00:00 23,8 18,2 18 10 27 15 NE 1014,8 30 0,0
17.07.2018 13:00:00 23,0 18,5 21 11 27 15 ENE 1014,9 28 0,0
17.07.2018 12:00:00 23,1 18,3 23 12 26 14 NE 1014,9 32 0,0
17.07.2018 11:00:00 23,4 18,9 17 9 24 13 NE 1015,0 25 0,0
17.07.2018 10:00:00 22,5 18,7 18 10 34 18 ENE 1014,7 29 0,0
17.07.2018 09:00:00 22,5 18,7 22 12 36 19 ENE 1014,8 32 0,0
17.07.2018 08:00:00 22,6 18,3 30 16 36 19 ENE 1014,3 34 0,0
17.07.2018 07:00:00 22,4 17,5 27 15 34 19 NE 1014,4 33 0,0
17.07.2018 06:00:00 22,2 16,7 29 15 33 18 NE 1014,5 48 0,0
17.07.2018 05:00:00 21,6 16,4 19 11 23 13 NE 1014,6 50 0,0
17.07.2018 04:00:00 21,4 15,4 17 9 22 12 NNE 1014,6 50 0,0
17.07.2018 03:00:00 21,8 16,0 15 8 20 11 NNE 1014,8 48 0,0
17.07.2018 02:00:00 22,2 15,6 15 8 19 10 NNE 1015,0 49 0,0
17.07.2018 01:00:00 22,1 16,4 12 7 22 12 NNE 1015,3 46 0,0
17.07.2018 00:00:00 22,4 17,3 16 8 22 12 NE 1015,5 41 0,0
16.07.2018 23:00:00 22,4 18,6 18 10 21 11 NE 1015,2 50 0,0
16.07.2018 22:00:00 22,5 19,4 14 8 19 10 ENE 1015,2 50 0,0
16.07.2018 21:00:00 22,7 19,7 14 7 22 12 E 1015,2 47 0,0
16.07.2018 20:00:00 23,2 19,3 16 9 22 12 E 1014,8 46 0,0
16.07.2018 19:00:00 23,8 19,2 18 10 22 12 E 1014,8 45 0,0
16.07.2018 18:00:00 24,4 17,5 16 9 19 11 E 1014,8 40 0,0
16.07.2018 17:00:00 25,0 17,6 12 6 16 9 E 1015,2 49 0,0
16.07.2018 16:00:00 25,1 17,5 13 7 15 8 E 1015,3 36 0,0
16.07.2018 15:00:00 25,3 15,8 9 5 18 10 ESE 1015,8 39 0,0
16.07.2018 14:00:00 25,3 17,7 10 6 18 10 E 1015,9 37 0,0
16.07.2018 13:00:00 25,1 18,4 12 7 16 9 E 1016,1 37 0,0
16.07.2018 12:00:00 23,8 17,9 12 7 15 8 ESE 1015,9 39 0,0
16.07.2018 11:00:00 24,6 18,3 12 7 14 8 ESE 1015,8 31 0,0
16.07.2018 10:00:00 23,7 15,3 6 3 9 5 ENE 1015,7 37 0,0
16.07.2018 09:00:00 24,6 13,7 3 2 10 5 WNW 1015,7 34 0,0
16.07.2018 08:00:00 21,8 17,9 7 4 10 5 NW 1015,9 34 0,0
16.07.2018 07:00:00 22,5 16,7 3 2 8 4 NNE 1015,8 38 0,0
16.07.2018 06:00:00 22,0 18,2 0 0 6 4 N 1015,7 46 0,0
16.07.2018 05:00:00 21,1 17,9 0 0 10 5 N 1015,6 45 0,0
16.07.2018 04:00:00 21,2 16,5 5 3 13 7 WSW 1015,5 50 0,0
16.07.2018 03:00:00 21,4 16,9 8 5 13 7 WSW 1015,4 50 0,0
16.07.2018 02:00:00 21,7 15,5 9 5 11 6 WSW 1015,4 50 0,0
16.07.2018 01:00:00 21,5 17,3 9 5 10 6 SW 1015,5 50 0,0
16.07.2018 00:00:00 21,0 18,3 2 1 10 5 WSW 1015,6 43 0,0
15.07.2018 23:00:00 21,5 18,4 3 2 10 5 W 1015,3 43 0,0
15.07.2018 22:00:00 21,6 18,8 8 4 15 8 WSW 1014,9 38 0,0
15.07.2018 21:00:00 22,6 17,2 6 3 17 9 SSW 1014,7 50 0,0
15.07.2018 20:00:00 22,9 16,9 10 6 18 10 SSW 1014,5 47 0,0
15.07.2018 19:00:00 23,6 17,3 10 5 21 11 SW 1014,3 46 0,0
15.07.2018 18:00:00 23,7 17,5 12 6 21 11 SSW 1014,4 31 0,0
15.07.2018 17:00:00 24,2 18,4 12 7 22 12 SSW 1014,4 30 0,0
15.07.2018 16:00:00 23,5 18,2 15 8 24 13 SSW 1014,6 34 0,0
15.07.2018 15:00:00 23,6 17,6 16 9 24 13 SSW 1014,7 32 0,0
15.07.2018 14:00:00 23,6 17,2 15 8 21 11 S 1014,6 35 0,0
15.07.2018 13:00:00 23,2 16,8 13 7 18 10 S 1014,7 30 0,0
15.07.2018 12:00:00 23,7 15,3 9 5 13 7 S 1014,7 35 0,0
15.07.2018 11:00:00 22,9 16,0 8 4 13 7 WSW 1014,8 30 0,0
15.07.2018 10:00:00 22,9 15,5 5 3 14 8 W 1014,6 39 0,0
15.07.2018 09:00:00 21,9 15,5 7 4 16 9 NW 1014,2 29 0,0
15.07.2018 08:00:00 20,8 15,6 9 5 22 12 NW 1014,0 31 0,0
15.07.2018 07:00:00 20,1 15,5 13 7 22 12 NW 1013,8 39 0,0
15.07.2018 06:00:00 20,0 15,5 13 7 20 11 NW 1013,8 41 0,0
15.07.2018 05:00:00 20,3 18,2 8 4 15 8 WSW 1013,6 49 0,0
15.07.2018 04:00:00 20,0 18,8 10 6 14 8 SW 1013,7 30 0,0
15.07.2018 03:00:00 20,1 18,4 8 4 13 7 W 1013,5 36 0,0
15.07.2018 02:00:00 20,2 18,3 5 3 13 7 SSW 1013,5 44 0,0
15.07.2018 01:00:00 20,4 18,6 9 5 13 7 SW 1013,5 45 0,0
15.07.2018 00:00:00 20,2 18,1 8 5 13 7 S 1013,5 48 0,0
14.07.2018 23:00:00 20,4 17,8 11 6 13 7 S 1013,4 50 0,0
14.07.2018 22:00:00 20,9 17,1 9 5 14 8 S 1013,4 50 0,0
14.07.2018 21:00:00 20,8 17,9 11 6 14 8 SSE 1013,1 50 0,0
14.07.2018 20:00:00 21,9 16,7 7 4 15 8 SSW 1013,1 50 0,0
14.07.2018 19:00:00 22,4 16,5 8 5 16 9 WSW 1013,2 41 0,0
14.07.2018 18:00:00 22,8 16,8 11 6 16 9 WSW 1013,3 42 0,0
14.07.2018 17:00:00 23,5 16,4 9 5 15 8 SSW 1013,4 46 0,0
14.07.2018 16:00:00 22,9 15,8 9 5 15 8 S 1013,6 47 0,0
14.07.2018 15:00:00 23,0 15,6 10 6 15 8 SSE 1013,6 40 0,0
14.07.2018 14:00:00 22,3 15,5 11 6 15 8 S 1013,8 39 0,0
14.07.2018 13:00:00 22,3 14,3 11 6 14 8 S 1014,2 44 0,0
14.07.2018 12:00:00 22,2 14,9 10 5 12 7 S 1014,4 41 0,0
14.07.2018 11:00:00 21,5 15,4 9 5 18 10 SSE 1014,4 39 0,0
14.07.2018 10:00:00 20,9 15,9 13 7 18 10 ESE 1014,4 37 0,0
14.07.2018 09:00:00 20,7 15,8 8 4 12 7 E 1014,3 42 0,0
14.07.2018 08:00:00 20,3 15,0 4 2 14 8 ENE 1014,0 42 0,0
14.07.2018 07:00:00 20,0 15,6 2 1 14 8 NE 1013,8 50 0,0
14.07.2018 06:00:00 19,4 15,8 8 5 13 7 NW 1013,8 43 0,0
14.07.2018 05:00:00 18,8 15,9 8 5 16 9 NW 1013,7 42 0,0
14.07.2018 04:00:00 18,4 16,8 8 5 16 9 NW 1013,8 32 0,0
14.07.2018 03:00:00 18,7 16,4 14 7 16 9 WNW 1014,0 41 0,0
14.07.2018 02:00:00 18,5 16,2 8 4 9 5 W 1014,2 47 0,0
14.07.2018 01:00:00 18,6 16,6 5 3 6 3 W 1014,5 41 0,0
14.07.2018 00:00:00 18,9 15,1 3 2 8 4 SW 1014,6 42 0,0
13.07.2018 23:00:00 19,2 14,4 3 2 8 4 SSW 1014,5 43 0,0
13.07.2018 22:00:00 19,6 15,7 3 2 7 4 WSW 1014,5 49 0,0
13.07.2018 21:00:00 19,6 15,4 5 3 7 4 SE 1014,4 50 0,0

tt = Température de l'air
td = dewpoint
ff = Vitesse du vent
fx = gusts
dd = Direction du vent
ppp = reduced air pressure
vv = visibility
rr = Quantités de précipitations

stations d'obs. à proximité